(35647) = 1998 KA67

Discovered at Socorro on 1998-05-23 by LINEAR.

Orbit

Orbit type: Main Belt

Note: WebGL enabled browser required.

epoch2024-03-31.0
epoch JD2460400.5
perihelion date2019-12-10.62239
perihelion JD2458828.12239
argument of perihelion (°)140.55914
ascending node (°)88.02671
inclination (°)16.00099
eccentricity0.0802818
perihelion distance (AU)2.4356758
Tisserand w.r.t. Jupiter3.3
ΔV w.r.t. Earth (km/sec)11.0
semimajor axis (AU)2.6482848
mean anomaly (°)359.59502
mean daily motion (°/day)0.22869510
aphelion distance (AU)2.861
period (years)4.31
P-vector [x]-0.63689894
P-vector [y]-0.75849904
P-vector [z]-0.13798166
Q-vector [x]0.72004492
Q-vector [y]-0.52128677
Q-vector [z]-0.45803431
absolute magnitude14.35
phase slope0.15
uncertainty0
referenceMPEC 2024-F62
observations used1554
oppositions19
arc length (days)9463
first opposition used1998
last opposition used2024
residual rms (arc-secs)0.69
perturbers coarse indicatorM-v
perturbers precise indicator003Ek
first observation date used1998-04-23.0
last observation date used2024-03-20.0
computer nameMPCLINUX
JD of orbit computation2456670.855420
perihelion JD uncertainty (days)1.7291E-04
argument of perihelion uncertainty (°)4.7263E-05
ascending node uncertainty (°)2.3696E-05
inclination uncertainty (°)6.8234E-06
eccentricity uncertainty 7.5973E-08
perihelion distance uncertainty (AU)1.9629E-07
Minimum Orbit Intersection Distances (in AU)
for orbit epoch: 2460400.5, reference: E2024-G88
Mercury1.98402
Venus1.72082
Earth1.43972
Mars0.94524
Jupiter2.20837
Saturn6.22229
Uranus15.9402
Neptune27.0101

Observations

1569 total observations over interval: 1998 04 23.35637 – 2024 03 20.087109
These data are available for download (format description).

Date (UT) J2000 RA J2000 Dec Magn Location Ref
1998 04 23.35637 15 20 37.73 +02 00 57.6 18.2   704 – Lincoln Laboratory ETS, New Mexico MPS 34026
1998 04 23.37517 15 20 36.80 +02 00 57.5   704 – Lincoln Laboratory ETS, New Mexico MPS 34026
1998 04 23.39398 15 20 35.76 +02 01 00.8   704 – Lincoln Laboratory ETS, New Mexico MPS 34026
1998 04 23.41339 15 20 34.72 +02 01 01.4 18.9   704 – Lincoln Laboratory ETS, New Mexico MPS 34026
1998 05 23.18411 14 52 35.25 +01 09 24.2 18.1   704 – Lincoln Laboratory ETS, New Mexico MPS 17481
1998 05 23.20383 14 52 34.21 +01 09 18.8 18.2   704 – Lincoln Laboratory ETS, New Mexico MPS 17481
1998 05 23.22365 14 52 33.16 +01 09 13.2 18.3   704 – Lincoln Laboratory ETS, New Mexico MPS 17481
1998 05 23.24365 14 52 31.99 +01 09 08.0 18.3   704 – Lincoln Laboratory ETS, New Mexico MPS 17481
1998 05 23.26337 14 52 30.93 +01 09 02.5   704 – Lincoln Laboratory ETS, New Mexico MPS 17481
1998 05 27.16811 14 49 15.50 +00 48 36.6 17.6 R 699 – Lowell Observatory-LONEOS MPS 17481
1998 05 27.18796 14 49 14.51 +00 48 30.0   699 – Lowell Observatory-LONEOS MPS 17481
1998 05 27.20781 14 49 13.54 +00 48 23.3   699 – Lowell Observatory-LONEOS MPS 17481
1999 09 11.33278 23 39 10.40 -28 52 26.0 18.5   704 – Lincoln Laboratory ETS, New Mexico MPS 34026
1999 09 11.34775 23 39 09.57 -28 52 30.6 18.1   704 – Lincoln Laboratory ETS, New Mexico MPS 34026
1999 09 11.36234 23 39 08.77 -28 52 35.6 18.6   704 – Lincoln Laboratory ETS, New Mexico MPS 34026
1999 09 11.37678 23 39 08.00 -28 52 40.7 18.5   704 – Lincoln Laboratory ETS, New Mexico MPS 34026
1999 09 11.39099 23 39 07.19 -28 52 44.7 18.3   704 – Lincoln Laboratory ETS, New Mexico MPS 34026
1999 09 30.17302 23 22 49.20 -29 48 19.3 18.7   704 – Lincoln Laboratory ETS, New Mexico MPS 34026
1999 09 30.18912 23 22 48.46 -29 48 19.6 18.9   704 – Lincoln Laboratory ETS, New Mexico MPS 34026
1999 09 30.20498 23 22 47.64 -29 48 20.0 18.7   704 – Lincoln Laboratory ETS, New Mexico MPS 34026
1999 09 30.22083 23 22 46.81 -29 48 19.8 18.9   704 – Lincoln Laboratory ETS, New Mexico MPS 34026
1999 09 30.23697 23 22 46.06 -29 48 19.8 18.8   704 – Lincoln Laboratory ETS, New Mexico MPS 34026
2000 11 21.34985 05 21 59.49 +16 55 06.4 19.0   704 – Lincoln Laboratory ETS, New Mexico MPS 34026
2000 11 21.36594 05 21 58.63 +16 55 08.5 19.2   704 – Lincoln Laboratory ETS, New Mexico MPS 34026
2000 11 21.38094 05 21 57.82 +16 55 10.8 19.3   704 – Lincoln Laboratory ETS, New Mexico MPS 34026
2000 12 30.23675 04 43 17.38 +19 11 48.0 19.3   704 – Lincoln Laboratory ETS, New Mexico MPS 34026
2000 12 30.25187 04 43 16.62 +19 11 51.5 19.1   704 – Lincoln Laboratory ETS, New Mexico MPS 34026
2000 12 30.26689 04 43 15.73 +19 11 55.5 19.3   704 – Lincoln Laboratory ETS, New Mexico MPS 34026
2000 12 30.28178 04 43 15.05 +19 11 58.4 18.6   704 – Lincoln Laboratory ETS, New Mexico MPS 34026
2001 01 21.15519 04 30 56.87 +20 42 24.9 19.0   704 – Lincoln Laboratory ETS, New Mexico MPS 34026
2001 01 21.17020 04 30 56.63 +20 42 29.2 19.3   704 – Lincoln Laboratory ETS, New Mexico MPS 34026
2001 01 21.20033 04 30 56.16 +20 42 37.0 19.8   704 – Lincoln Laboratory ETS, New Mexico MPS 34026
2001 01 21.21536 04 30 55.85 +20 42 41.6 20.1   704 – Lincoln Laboratory ETS, New Mexico MPS 34026
2002 01 09.47558 12 50 35.15 +14 41 05.7 19.3   704 – Lincoln Laboratory ETS, New Mexico MPS 46435
2002 01 09.49055 12 50 35.87 +14 41 08.7 19.0   704 – Lincoln Laboratory ETS, New Mexico MPS 46435
2002 01 09.50560 12 50 36.68 +14 41 10.9 19.1   704 – Lincoln Laboratory ETS, New Mexico MPS 46435
2002 01 09.52063 12 50 37.42 +14 41 13.1 19.3   704 – Lincoln Laboratory ETS, New Mexico MPS 46435
2002 01 09.53562 12 50 38.16 +14 41 15.9 19.4   704 – Lincoln Laboratory ETS, New Mexico MPS 46435
2002 01 19.44093 12 58 14.90 +15 18 52.6 18.4 R 699 – Lowell Observatory-LONEOS MPS 48537
2002 01 19.46819 12 58 15.96 +15 18 59.9   699 – Lowell Observatory-LONEOS MPS 48537
2002 01 19.49553 12 58 17.11 +15 19 08.3   699 – Lowell Observatory-LONEOS MPS 48537
2002 01 19.52296 12 58 18.00 +15 19 16.1   699 – Lowell Observatory-LONEOS MPS 48537
2002 01 21.43725 12 59 31.86 +15 28 33.5 18.2 R 699 – Lowell Observatory-LONEOS MPS 46435
2002 01 21.46079 12 59 32.67 +15 28 40.7   699 – Lowell Observatory-LONEOS MPS 46435
2002 01 21.48433 12 59 33.51 +15 28 47.7   699 – Lowell Observatory-LONEOS MPS 46435
2002 01 21.50791 12 59 34.34 +15 28 55.2   699 – Lowell Observatory-LONEOS MPS 46435
2002 02 10.41117 13 06 58.87 +17 41 48.5 17.6 R 699 – Lowell Observatory-LONEOS MPS 48537
2002 02 10.43479 13 06 59.00 +17 42 00.0   699 – Lowell Observatory-LONEOS MPS 48537
2002 02 10.45842 13 06 59.09 +17 42 11.4   699 – Lowell Observatory-LONEOS MPS 48537
2002 02 10.48211 13 06 59.19 +17 42 22.9   699 – Lowell Observatory-LONEOS MPS 48537
2002 03 19.51606 12 51 45.34 +22 56 38.3 17.5   644 – Palomar Mountain/NEAT MPS 53990
2002 03 19.52646 12 51 44.79 +22 56 42.3 17.4   644 – Palomar Mountain/NEAT MPS 53990
2002 03 19.53678 12 51 44.25 +22 56 46.4 17.7   644 – Palomar Mountain/NEAT MPS 53990
2002 03 21.30526 12 50 14.46 +23 08 03.5 17.4   704 – Lincoln Laboratory ETS, New Mexico MPS 53990
2002 03 21.31702 12 50 13.83 +23 08 07.9 17.7   704 – Lincoln Laboratory ETS, New Mexico MPS 53990
2002 03 21.32882 12 50 13.20 +23 08 11.9 17.9   704 – Lincoln Laboratory ETS, New Mexico MPS 53990
2002 03 21.34060 12 50 12.56 +23 08 16.5 17.9   704 – Lincoln Laboratory ETS, New Mexico MPS 53990
2002 03 21.35239 12 50 11.91 +23 08 21.0 17.7   704 – Lincoln Laboratory ETS, New Mexico MPS 53990
2002 04 04.31531 12 37 34.04 +24 06 59.3 18.2   704 – Lincoln Laboratory ETS, New Mexico MPS 56619
2002 04 04.34485 12 37 32.36 +24 07 02.5 18.3   704 – Lincoln Laboratory ETS, New Mexico MPS 56619
2002 04 04.36388 12 37 31.29 +24 07 04.6 18.5   704 – Lincoln Laboratory ETS, New Mexico MPS 56619
2002 04 04.37983 12 37 30.39 +24 07 06.4 18.3   704 – Lincoln Laboratory ETS, New Mexico MPS 56619
2002 04 04.39530 12 37 29.51 +24 07 08.1 18.1   704 – Lincoln Laboratory ETS, New Mexico MPS 56619
2002 04 10.20995 12 32 19.69 +24 13 27.6 17.3   644 – Palomar Mountain/NEAT MPS 56619
2002 04 10.23089 12 32 18.56 +24 13 27.9 17.5   644 – Palomar Mountain/NEAT MPS 56619
2002 04 10.25185 12 32 17.44 +24 13 28.1 17.4   644 – Palomar Mountain/NEAT MPS 56619
2002 04 19.26795 12 25 07.40 +24 01 05.1 17.5   704 – Lincoln Laboratory ETS, New Mexico MPS 56619
2002 04 19.28107 12 25 06.82 +24 01 02.2 18.1   704 – Lincoln Laboratory ETS, New Mexico MPS 56619
2002 04 19.29417 12 25 06.25 +24 01 00.6 17.9   704 – Lincoln Laboratory ETS, New Mexico MPS 56619
2002 04 21.20566 12 23 46.68 +23 55 02.8 17.7   644 – Palomar Mountain/NEAT MPS 56619
2002 04 21.22708 12 23 45.77 +23 54 58.3 17.7   644 – Palomar Mountain/NEAT MPS 56619
2002 04 21.24820 12 23 44.87 +23 54 54.2 17.6   644 – Palomar Mountain/NEAT MPS 56619
2002 05 04.15847 12 16 59.78 +22 47 03.7 18.0   644 – Palomar Mountain/NEAT MPS 56019
2002 05 04.16892 12 16 59.53 +22 46 59.4 18.1   644 – Palomar Mountain/NEAT MPS 56019
2002 05 04.17930 12 16 59.28 +22 46 55.2 18.1   644 – Palomar Mountain/NEAT MPS 56019
2002 05 05.21411 12 16 37.60 +22 39 36.1 18.9   704 – Lincoln Laboratory ETS, New Mexico MPS 56019
2002 05 05.22880 12 16 37.28 +22 39 30.1 18.7   704 – Lincoln Laboratory ETS, New Mexico MPS 56019
2002 05 05.24341 12 16 36.97 +22 39 23.9 18.9   704 – Lincoln Laboratory ETS, New Mexico MPS 56019
2002 05 05.25738 12 16 36.63 +22 39 17.3 18.7   704 – Lincoln Laboratory ETS, New Mexico MPS 56019
2002 05 05.27042 12 16 36.35 +22 39 11.1 18.7   704 – Lincoln Laboratory ETS, New Mexico MPS 56019
2002 05 15.15916 12 14 37.70 +21 17 40.6 17.8   704 – Lincoln Laboratory ETS, New Mexico MPS 56019
2002 05 15.18846 12 14 37.52 +21 17 24.0 18.1   704 – Lincoln Laboratory ETS, New Mexico MPS 56019
2002 05 15.20387 12 14 37.43 +21 17 15.7 17.9   704 – Lincoln Laboratory ETS, New Mexico MPS 56019
2002 05 15.21851 12 14 37.36 +21 17 07.4 17.8   704 – Lincoln Laboratory ETS, New Mexico MPS 56019
2002 08 05.15999 13 15 39.25 +04 02 13.1 19.9   644 – Palomar Mountain/NEAT MPS 60652
2002 08 05.17150 13 15 40.11 +04 02 03.1 19.5   644 – Palomar Mountain/NEAT MPS 60652
